{"data":{"norad_id":66071,"intl_designator":"2025-235P","name":"STARLINK-35323","alt_names":[],"object_type":"PAYLOAD","status":"ACTIVE","operator":null,"country":"US","launch_date":"2025-10-19","launch_site_code":"AFETR","launch_vehicle":null,"mission":null,"orbit_class":"UNKNOWN","rcs_meters":null,"size_class":null,"mass_kg":null,"dimensions":null,"purposes":["comms"],"wikipedia_slug":null,"has_3d_model":false,"image_url":null,"decayed_at":null,"tle_current":{"epoch":"2026-05-24T13:47:03.655968Z","epoch_age_seconds":118582,"freshness":"FRESH","line1":"1 66071U 25235P   26144.57434787  .00005564  00000+0  19986-3 0  9994","line2":"2 66071  53.1608 252.5116 0000409  12.7893 347.3118 15.30194280 34546","mean_motion":15.3019428,"eccentricity":4.09e-5,"inclination_deg":53.1608,"raan_deg":252.5116,"arg_perigee_deg":12.7893,"mean_anomaly_deg":347.3118,"bstar":0.00019986,"rev_number":3454,"period_min":94.105697480453,"perigee_km":474.95184556332,"apogee_km":475.51245115966,"semimajor_km":6853.3691483615,"source":"CELESTRAK","updated_at":"2026-05-25T13:38:21.022866Z"}}}